AWC14 EDLP-EKCH

Flight info

Callsign AWC14
Flight time N/A
Altitude 36000
Route WRB1X WRB P12 NORTA P605 HAM/N0432F370 P605 GESKA/N0433F360 Z711 MONAK
Aircraft A320/M-SDE3FGHIRWY/LB1

Departure

Time N/A
Airport Paderborn Lippstadt Airport (EDLP)

Arrival

Time 2026-04-26 09:08
Airport Copenhagen Kastrup Airport (EKCH)
Time Latitude Longitude Altitude Speed Heading
2026-04-26 09:08 55.60554 12.62314 26 ft 30 kts 13°
2026-04-26 09:08 55.60761 12.62397 24 ft 31 kts 15°
2026-04-26 09:08 55.60884 12.62538 24 ft 17 kts 39°
2026-04-26 09:09 55.60982 12.62677 25 ft 20 kts 38°
2026-04-26 09:09 55.61090 12.62848 24 ft 22 kts 43°
2026-04-26 09:09 55.61210 12.63043 24 ft 25 kts 42°
2026-04-26 09:09 55.61349 12.63257 24 ft 28 kts 40°
2026-04-26 09:10 55.61502 12.63491 24 ft 31 kts 41°
2026-04-26 09:10 55.61673 12.63754 24 ft 33 kts 40°
2026-04-26 09:10 55.61851 12.64031 24 ft 36 kts 40°
2026-04-26 09:10 55.62077 12.64237 26 ft 37 kts 25°
2026-04-26 09:11 55.62293 12.64405 23 ft 28 kts 12°
2026-04-26 09:11 55.62455 12.64365 24 ft 26 kts 314°
2026-04-26 09:11 55.62539 12.64203 24 ft 5 kts
2026-04-26 09:11 55.62589 12.64193 25 ft 8 kts 327°
2026-04-26 09:12 55.62623 12.64183 26 ft 1 kts 32°
2026-04-26 09:12 55.62638 12.64195 24 ft 0 kts 25°
2026-04-26 09:13 55.62641 12.64192 24 ft 0 kts 346°
2026-04-26 09:13 55.62642 12.64185 24 ft 0 kts 305°
2026-04-26 09:13 55.62641 12.64183 24 ft 0 kts 294°
2026-04-26 09:14 55.62641 12.64177 24 ft 1 kts 275°
2026-04-26 09:14 55.62645 12.64137 24 ft 5 kts 299°
2026-04-26 09:14 55.62671 12.64133 24 ft 1 kts 31°
2026-04-26 09:14 55.62687 12.64148 24 ft 0 kts 30°
2026-04-26 09:15 55.62696 12.64158 26 ft 2 kts 31°
2026-04-26 09:15 55.62703 12.64166 25 ft 0 kts 32°